Volver al catálogo

STARLINK-5554

ActivoComunicacionesSSO
NORAD 56338·PAYLOAD·🇺🇸 United States

Lanzado Apr 27, 2023 desde Vandenberg Space Force Base

Loading…

Próximos Pases (próximas 24 horas)

TLE

ActualizadoSource: CelesTrak SupGP

Época: Sep 14, 2026, 22:03 UTC

1 56338C 23058X   26257.91923611  .00055581  00000+0  33805-2 0  2578
2 56338  97.2849 252.0829 0002136  87.9238 194.0379 15.10503977    15

Sigue STARLINK-5554 en tiempo real con AllMySat

Download on the App Store